This is the latest recevied weather packets stored in our database for station/object W7BTL. If no packets are shown the sender has not sent any weather packets the latest 10 day(s).
| Time | Temp. | Humidity | Pressure | Rain* | Wind** | Luminosity | Snow |
|---|---|---|---|---|---|---|---|
| 1788570550 | 27.22° C | 54% | 1011.6 hPa | 0 mm | - | 74 W/m² | - |
| 1788570245 | 27.78° C | 52% | 1011.7 hPa | 0 mm | - | 83 W/m² | - |
| 1788569941 | 28.89° C | 48% | 1011.8 hPa | 0 mm | - | 95 W/m² | - |
| 1788569636 | 28.33° C | 43% | 1011.7 hPa | 0 mm | - | 107 W/m² | - |
| 1788569332 | 28.89° C | 42% | 1011.7 hPa | 0 mm | - | 120 W/m² | - |
| 1788569032 | 28.89° C | 42% | 1011.9 hPa | 0 mm | - | 133 W/m² | - |
| 1788568727 | 28.89° C | 42% | 1011.9 hPa | 0 mm | - | 144 W/m² | - |
| 1788568423 | 28.89° C | 41% | 1011.8 hPa | 0 mm | - | 164 W/m² | - |
| 1788568118 | 29.44° C | 40% | 1011.6 hPa | 0 mm | - | 176 W/m² | - |
| 1788567818 | 28.89° C | 39% | 1011.7 hPa | 0 mm | - | 199 W/m² | - |
| 1788567513 | 28.89° C | 40% | 1011.8 hPa | 0 mm | - | 217 W/m² | - |
| 1788567213 | 28.89° C | 38% | 1011.8 hPa | 0 mm | - | 232 W/m² | - |
| 1788566908 | 28.89° C | 41% | 1011.6 hPa | 0 mm | - | 259 W/m² | - |
| 1788566603 | 28.89° C | 42% | 1011.9 hPa | 0 mm | - | 270 W/m² | - |
| 1788566298 | 29.44° C | 43% | 1011.9 hPa | 0 mm | - | 293 W/m² | - |
| 1788565994 | 29.44° C | 42% | 1011.8 hPa | 0 mm | - | 301 W/m² | - |
| 1788565689 | 30° C | 41% | 1011.8 hPa | 0 mm | - | 334 W/m² | - |
| 1788565383 | 30° C | 38% | 1011.8 hPa | 0 mm | - | 353 W/m² | - |
| 1788565079 | 30° C | 40% | 1011.8 hPa | 0 mm | - | 379 W/m² | - |
| 1788564775 | 30° C | 39% | 1011.6 hPa | 0 mm | - | 401 W/m² | - |
| 1788564472 | 30° C | 38% | 1011.8 hPa | 0 mm | - | 423 W/m² | - |
| 1788564168 | 30° C | 37% | 1011.7 hPa | 0 mm | - | 428 W/m² | - |
| 1788563883 | 30.56° C | 39% | 1011.8 hPa | 0 mm | - | 463 W/m² | - |
| 1788563558 | 30.56° C | 40% | 1011.7 hPa | 0 mm | - | 487 W/m² | - |
| 1788563259 | 30.56° C | 37% | 1011.8 hPa | 0 mm | - | 509 W/m² | - |
* Rain latest hour (hover to see other rain measurements)
** Current wind speed in m/s (hover to see current wind gust speed)